Location: Москва
(55.7504°N, 37.6175°E)
Time: 03:22:03
(UTC+03:00)

Envisat - Pass Details

Date: 27 September 2021
Orbit: 764 x 766 km, 98.2° (Epoch: 17 October)

Event Time Altitude Azimuth Distance (km) Brightness Sun altitude
Rises 04:00:21 0° 27° (NNE) 3,246 7.2 -20.3°
Reaches altitude 10° 04:04:19 10° 58° (ENE) 2,312 6.7 -19.8°
Maximum altitude 04:06:15 12° 81° (E) 2,167 6.4 -19.6°
Drops below altitude 10° 04:08:12 10° 104° (ESE) 2,305 6.1 -19.3°
Sets 04:12:07 0° 135° (SE) 3,224 6.5 -18.8°
